Location: *
(46.1200°N, 11.2700°E)
Time: 14:47:32
(UTC+00:00)

Cosmos 2084 Rocket - Pass Details

Date: 02 March 2021
Orbit: 527 x 654 km, 62.8° (Epoch: 23 April)

Event Time Altitude Azimuth Distance (km) Brightness Sun altitude
Rises 18:16:06 0° 320° (NW) 2,804 7.6 -13.5°
Reaches altitude 10° 18:18:19 10° 322° (NW) 1,922 6.7 -13.9°
Maximum altitude 18:22:40 81° 49° (NE) 619 3.4 -14.6°
Enters shadow 18:26:02 18° 137° (SE) 1,542 5.2 -15.2°
